This is the latest recevied weather packets stored in our database for station/object NN5DX-13. If no packets are shown the sender has not sent any weather packets the latest 10 day(s).
| Time | Temp. | Humidity | Pressure | Rain* | Wind** | Luminosity | Snow |
|---|---|---|---|---|---|---|---|
| 1787404221 | 22.78° C | 65% | 1020.8 hPa | 0 mm | - | - | - |
| 1787403921 | 22.22° C | 66% | 1020.7 hPa | 0 mm | - | - | - |
| 1787403623 | 21.67° C | 67% | 1020.4 hPa | 0 mm | - | - | - |
| 1787403321 | 21.11° C | 69% | 1020.4 hPa | 0 mm | - | - | - |
| 1787403021 | 20.56° C | 71% | 1020.1 hPa | 0 mm | - | - | - |
| 1787402721 | 20° C | 71% | 1020.3 hPa | 0 mm | - | - | - |
| 1787402421 | 20° C | 70% | 1020.3 hPa | 0 mm | - | - | - |
| 1787402121 | 20° C | 70% | 1020.2 hPa | 0 mm | - | - | - |
| 1787401521 | 20.56° C | 69% | 1020.1 hPa | 0 mm | - | - | - |
| 1787401221 | 20.56° C | 69% | 1020.1 hPa | 0 mm | - | - | - |
| 1787400921 | 21.11° C | 68% | 1020.2 hPa | 0 mm | - | - | - |
| 1787400621 | 21.11° C | 68% | 1020.2 hPa | 0 mm | - | - | - |
| 1787400321 | 21.67° C | 68% | 1020.1 hPa | 0 mm | - | - | - |
| 1787400021 | 21.67° C | 69% | 1020.2 hPa | 0 mm | - | - | - |
| 1787399721 | 21.11° C | 69% | 1020.3 hPa | 0 mm | - | - | - |
| 1787399421 | 21.11° C | 69% | 1020.3 hPa | 0 mm | - | - | - |
| 1787399121 | 21.11° C | 70% | 1020.2 hPa | 0 mm | - | - | - |
| 1787398821 | 21.11° C | 69% | 1020.2 hPa | 0 mm | - | - | - |
| 1787398521 | 21.11° C | 69% | 1020.2 hPa | 0 mm | - | - | - |
| 1787398221 | 21.11° C | 70% | 1020 hPa | 0 mm | - | - | - |
| 1787397921 | 21.11° C | 71% | 1020 hPa | 0 mm | - | - | - |
| 1787397621 | 20.56° C | 71% | 1019.9 hPa | 0 mm | - | - | - |
| 1787397321 | 20.56° C | 69% | 1019.9 hPa | 0 mm | - | - | - |
| 1787397021 | 21.11° C | 69% | 1019.9 hPa | 0 mm | - | - | - |
| 1787396721 | 21.11° C | 68% | 1019.9 hPa | 0 mm | - | - | - |
* Rain latest hour (hover to see other rain measurements)
** Current wind speed in m/s (hover to see current wind gust speed)